TimeCST,TemperatureF,Dew PointF,Humidity,Sea Level PressureIn,VisibilityMPH,Wind Direction,Wind SpeedMPH,Gust SpeedMPH,PrecipitationIn,Events,Conditions,WindDirDegrees,DateUTC
12:14 AM,35.6,24.8,65,30.08,10.0,South,12.7,-,N/A,,Clear,170,2012-11-17 06:14:00
12:35 AM,35.6,26.6,70,30.08,10.0,South,10.4,-,N/A,,Clear,170,2012-11-17 06:35:00
12:54 AM,35.6,26.6,70,30.08,10.0,South,11.5,-,N/A,,Clear,170,2012-11-17 06:54:00
1:14 AM,35.6,26.6,70,30.07,10.0,South,11.5,-,N/A,,Clear,170,2012-11-17 07:14:00
1:35 AM,33.8,26.6,75,30.07,10.0,South,10.4,-,N/A,,Clear,180,2012-11-17 07:35:00
1:54 AM,33.8,26.6,75,30.06,10.0,South,10.4,-,N/A,,Clear,180,2012-11-17 07:54:00
2:14 AM,33.8,28.4,81,30.07,10.0,South,10.4,-,N/A,,Clear,170,2012-11-17 08:14:00
2:35 AM,33.8,26.6,75,30.07,10.0,South,9.2,-,N/A,,Clear,170,2012-11-17 08:35:00
2:54 AM,33.8,28.4,81,30.06,10.0,South,9.2,-,N/A,,Clear,170,2012-11-17 08:54:00
3:15 AM,32.0,28.4,87,30.06,10.0,South,8.1,-,N/A,,Clear,170,2012-11-17 09:15:00
3:35 AM,33.8,28.4,81,30.05,10.0,South,9.2,-,N/A,,Clear,170,2012-11-17 09:35:00
3:54 AM,33.8,28.4,81,30.05,10.0,South,9.2,-,N/A,,Clear,180,2012-11-17 09:54:00
4:15 AM,32.0,28.4,87,30.06,10.0,South,5.8,-,N/A,,Clear,180,2012-11-17 10:15:00
4:34 AM,30.2,28.4,93,30.05,10.0,South,6.9,-,N/A,,Clear,180,2012-11-17 10:34:00
4:54 AM,30.2,28.4,93,30.05,10.0,South,6.9,-,N/A,,Clear,180,2012-11-17 10:54:00
5:15 AM,30.2,28.4,93,30.05,10.0,South,8.1,-,N/A,,Clear,180,2012-11-17 11:15:00
5:34 AM,30.2,28.4,93,30.06,10.0,South,9.2,-,N/A,,Clear,180,2012-11-17 11:34:00
5:54 AM,32.0,28.4,87,30.06,10.0,South,9.2,-,N/A,,Clear,180,2012-11-17 11:54:00
6:15 AM,32.0,28.4,87,30.05,10.0,South,9.2,-,N/A,,Clear,180,2012-11-17 12:15:00
6:34 AM,32.0,28.4,87,30.05,10.0,South,8.1,-,N/A,,Clear,180,2012-11-17 12:34:00
6:54 AM,33.8,30.2,87,30.06,10.0,SSW,9.2,-,N/A,,Clear,200,2012-11-17 12:54:00
7:15 AM,32.0,30.2,93,30.05,10.0,South,9.2,-,N/A,,Clear,190,2012-11-17 13:15:00
7:34 AM,33.8,30.2,87,30.06,10.0,SSW,9.2,-,N/A,,Clear,200,2012-11-17 13:34:00
7:54 AM,33.8,30.2,87,30.07,7.0,SSW,9.2,-,N/A,,Clear,200,2012-11-17 13:54:00
8:15 AM,32.0,30.2,93,30.08,7.0,SW,9.2,-,N/A,,Clear,220,2012-11-17 14:15:00
8:34 AM,33.8,30.2,87,30.08,7.0,SSW,5.8,-,N/A,,Clear,210,2012-11-17 14:34:00
8:55 AM,33.8,30.2,87,30.09,10.0,SSW,10.4,-,N/A,,Clear,210,2012-11-17 14:55:00
9:15 AM,33.8,30.2,87,30.08,10.0,SSW,9.2,-,N/A,,Clear,200,2012-11-17 15:15:00
9:34 AM,35.6,30.2,81,30.09,10.0,SSW,9.2,-,N/A,,Clear,210,2012-11-17 15:34:00
9:55 AM,35.6,32.0,87,30.09,10.0,SSW,6.9,-,N/A,,Clear,210,2012-11-17 15:55:00
10:15 AM,37.4,32.0,81,30.11,10.0,SW,9.2,-,N/A,,Clear,220,2012-11-17 16:15:00
10:34 AM,37.4,32.0,81,30.10,10.0,SW,6.9,-,N/A,,Clear,230,2012-11-17 16:34:00
10:55 AM,35.6,32.0,87,30.11,10.0,SW,8.1,-,N/A,,Clear,230,2012-11-17 16:55:00
11:15 AM,37.4,32.0,81,30.10,10.0,SW,4.6,-,N/A,,Clear,220,2012-11-17 17:15:00
11:34 AM,37.4,32.0,81,30.09,10.0,South,6.9,-,N/A,,Clear,190,2012-11-17 17:34:00
11:55 AM,37.4,33.8,87,30.10,10.0,WSW,8.1,-,N/A,,Clear,240,2012-11-17 17:55:00
12:14 PM,37.4,33.8,87,30.09,10.0,SW,8.1,-,N/A,,Clear,230,2012-11-17 18:14:00
12:34 PM,39.2,33.8,81,30.08,10.0,SW,4.6,-,N/A,,Clear,220,2012-11-17 18:34:00
12:55 PM,39.2,33.8,81,30.08,10.0,South,4.6,-,N/A,,Clear,190,2012-11-17 18:55:00
1:14 PM,39.2,33.8,81,30.08,10.0,SSW,3.5,-,N/A,,Clear,200,2012-11-17 19:14:00
1:34 PM,39.2,33.8,81,30.08,10.0,South,4.6,-,N/A,,Clear,190,2012-11-17 19:34:00
1:55 PM,41.0,33.8,76,30.08,10.0,South,6.9,-,N/A,,Clear,190,2012-11-17 19:55:00
2:14 PM,41.0,35.6,81,30.08,10.0,South,4.6,-,N/A,,Clear,180,2012-11-17 20:14:00
2:35 PM,41.0,35.6,81,30.08,10.0,SSE,4.6,-,N/A,,Clear,160,2012-11-17 20:35:00
2:55 PM,42.8,35.6,76,30.07,10.0,SSE,3.5,-,N/A,,Clear,160,2012-11-17 20:55:00
3:14 PM,42.8,35.6,76,30.08,10.0,Calm,Calm,-,N/A,,Clear,0,2012-11-17 21:14:00
3:35 PM,42.8,35.6,76,30.08,10.0,Calm,Calm,-,N/A,,Clear,0,2012-11-17 21:35:00
3:55 PM,42.8,35.6,76,30.08,10.0,Calm,Calm,-,N/A,,Clear,0,2012-11-17 21:55:00
4:14 PM,41.0,35.6,81,30.08,10.0,Calm,Calm,-,N/A,,Scattered Clouds,0,2012-11-17 22:14:00
4:35 PM,39.2,35.6,87,30.08,10.0,Calm,Calm,-,N/A,,Mostly Cloudy,0,2012-11-17 22:35:00
4:55 PM,39.2,35.6,87,30.08,10.0,Calm,Calm,-,N/A,,Mostly Cloudy,0,2012-11-17 22:55:00
5:14 PM,39.2,35.6,87,30.08,10.0,Calm,Calm,-,N/A,,Scattered Clouds,0,2012-11-17 23:14:00
5:35 PM,37.4,35.6,93,30.08,10.0,Calm,Calm,-,N/A,,Scattered Clouds,0,2012-11-17 23:35:00
5:54 PM,37.4,33.8,87,30.08,10.0,Calm,Calm,-,N/A,,Scattered Clouds,0,2012-11-17 23:54:00
6:15 PM,37.4,35.6,93,30.08,10.0,Calm,Calm,-,N/A,,Scattered Clouds,0,2012-11-18 00:15:00
6:34 PM,37.4,33.8,87,30.08,10.0,NE,4.6,-,N/A,,Scattered Clouds,40,2012-11-18 00:34:00
6:54 PM,35.6,33.8,93,30.08,7.0,NE,4.6,-,N/A,,Clear,40,2012-11-18 00:54:00
7:15 PM,35.6,33.8,93,30.07,7.0,NE,4.6,-,N/A,,Clear,50,2012-11-18 01:15:00
7:35 PM,35.6,33.8,93,30.07,10.0,NE,5.8,-,N/A,,Clear,50,2012-11-18 01:35:00
7:54 PM,35.6,33.8,93,30.06,10.0,NE,5.8,-,N/A,,Scattered Clouds,50,2012-11-18 01:54:00
8:15 PM,37.4,33.8,87,30.05,10.0,ENE,5.8,-,N/A,,Scattered Clouds,60,2012-11-18 02:15:00
8:54 PM,39.2,35.6,87,30.05,10.0,ENE,5.8,-,N/A,,Scattered Clouds,70,2012-11-18 02:54:00
9:14 PM,39.2,33.8,81,30.05,10.0,ENE,5.8,-,N/A,,Scattered Clouds,70,2012-11-18 03:14:00
9:34 PM,39.2,33.8,81,30.05,10.0,East,5.8,-,N/A,,Scattered Clouds,80,2012-11-18 03:34:00
9:55 PM,37.4,33.8,87,30.04,10.0,East,5.8,-,N/A,,Scattered Clouds,90,2012-11-18 03:55:00
10:15 PM,37.4,33.8,87,30.04,10.0,ENE,4.6,-,N/A,,Scattered Clouds,70,2012-11-18 04:15:00
10:34 PM,35.6,33.8,93,30.04,10.0,NE,4.6,-,N/A,,Scattered Clouds,50,2012-11-18 04:34:00
10:55 PM,37.4,33.8,87,30.04,10.0,ENE,3.5,-,N/A,,Scattered Clouds,70,2012-11-18 04:55:00
11:14 PM,37.4,33.8,87,30.04,10.0,ENE,3.5,-,N/A,,Scattered Clouds,60,2012-11-18 05:14:00
11:34 PM,37.4,33.8,87,30.03,10.0,ENE,3.5,-,N/A,,Scattered Clouds,70,2012-11-18 05:34:00
11:55 PM,35.6,33.8,93,30.03,10.0,NE,3.5,-,N/A,,Clear,40,2012-11-18 05:55:00